Time,TemperatureF,DewpointF,PressureIn,WindDirection,WindDirectionDegrees,WindSpeedMPH,WindSpeedGustMPH,Humidity,HourlyPrecipIn,Conditions,Clouds,dailyrainin,SoftwareType,DateUTC
2013-05-15 00:03:00,45.1,14.0,28.41,SSW,210,0.0,0.0,28,0.00,,---,0.00,VWS V14.01,2013-05-15 07:03:00,
2013-05-15 00:08:00,45.1,14.0,28.41,SSW,210,0.0,0.0,28,0.00,,---,0.00,VWS V14.01,2013-05-15 07:08:00,
2013-05-15 00:13:00,45.3,14.1,28.41,SSW,210,0.0,0.0,28,0.00,,---,0.00,VWS V14.01,2013-05-15 07:13:00,
2013-05-15 00:19:00,45.3,14.1,28.41,SSW,210,0.0,0.0,28,0.00,,---,0.00,VWS V14.01,2013-05-15 07:19:00,
2013-05-15 00:24:00,45.3,14.1,28.41,SSW,210,0.0,0.0,28,0.00,,---,0.00,VWS V14.01,2013-05-15 07:24:00,
2013-05-15 00:29:00,44.6,13.5,28.41,SSW,210,0.0,0.0,28,0.00,,---,0.00,VWS V14.01,2013-05-15 07:29:00,
2013-05-15 00:34:00,44.6,13.5,28.41,SSW,210,0.0,0.0,28,0.00,,---,0.00,VWS V14.01,2013-05-15 07:34:00,
2013-05-15 00:39:00,44.6,14.3,28.41,SSW,210,0.0,0.0,29,0.00,,---,0.00,VWS V14.01,2013-05-15 07:39:00,
2013-05-15 00:45:00,44.6,14.3,28.41,South,173,0.0,0.0,29,0.00,,---,0.00,VWS V14.01,2013-05-15 07:45:00,
2013-05-15 00:50:00,44.6,14.3,28.41,SE,144,3.6,3.6,29,0.00,,---,0.00,VWS V14.01,2013-05-15 07:50:00,
2013-05-15 00:55:00,45.1,14.8,28.41,SSE,149,0.0,0.0,29,0.00,,---,0.00,VWS V14.01,2013-05-15 07:55:00,
2013-05-15 01:01:00,45.1,14.8,28.41,SSE,153,0.0,0.0,29,0.00,,---,0.00,VWS V14.01,2013-05-15 08:01:00,
2013-05-15 01:06:00,45.1,14.8,28.41,SSE,153,0.0,0.0,29,0.00,,---,0.00,VWS V14.01,2013-05-15 08:06:00,
2013-05-15 01:11:00,46.2,14.9,28.41,SSE,153,0.0,0.0,28,0.00,,---,0.00,VWS V14.01,2013-05-15 08:11:00,
2013-05-15 01:16:00,46.2,14.9,28.41,East,93,0.0,0.0,28,0.00,,---,0.00,VWS V14.01,2013-05-15 08:16:00,
2013-05-15 01:22:00,46.8,14.6,28.41,East,93,0.0,0.0,27,0.00,,---,0.00,VWS V14.01,2013-05-15 08:22:00,
2013-05-15 01:27:00,46.8,14.6,28.41,East,84,0.0,0.0,27,0.00,,---,0.00,VWS V14.01,2013-05-15 08:27:00,
2013-05-15 01:32:00,46.9,14.7,28.41,SE,136,0.0,0.0,27,0.00,,---,0.00,VWS V14.01,2013-05-15 08:32:00,
2013-05-15 01:37:00,46.6,14.4,28.41,SSE,161,0.0,0.0,27,0.00,,---,0.00,VWS V14.01,2013-05-15 08:37:00,
2013-05-15 01:43:00,46.6,14.4,28.41,SE,130,0.0,0.0,27,0.00,,---,0.00,VWS V14.01,2013-05-15 08:43:00,
2013-05-15 01:48:00,46.6,14.4,28.41,SE,130,0.0,0.0,27,0.00,,---,0.00,VWS V14.01,2013-05-15 08:48:00,
2013-05-15 01:53:00,46.6,14.4,28.41,ESE,119,0.0,0.0,27,0.00,,---,0.00,VWS V14.01,2013-05-15 08:53:00,
2013-05-15 01:58:00,47.3,10.4,28.41,ESE,119,0.0,0.0,22,0.00,,---,0.00,VWS V14.01,2013-05-15 08:58:00,
2013-05-15 02:04:00,47.3,10.4,28.41,ESE,119,0.0,0.0,22,0.00,,---,0.00,VWS V14.01,2013-05-15 09:04:00,
2013-05-15 02:09:00,47.3,10.4,28.41,ESE,119,0.0,0.0,22,0.00,,---,0.00,VWS V14.01,2013-05-15 09:09:00,
2013-05-15 02:14:00,47.3,10.4,28.41,ESE,119,0.0,0.0,22,0.00,,---,0.00,VWS V14.01,2013-05-15 09:14:00,
2013-05-15 02:20:00,47.3,10.4,28.41,ESE,119,0.0,0.0,22,0.00,,---,0.00,VWS V14.01,2013-05-15 09:20:00,
2013-05-15 02:25:00,46.6,11.7,28.41,SE,127,0.0,0.0,24,0.00,,---,0.00,VWS V14.01,2013-05-15 09:25:00,
2013-05-15 02:30:00,46.0,14.8,28.41,SE,127,0.0,0.0,28,0.00,,---,0.00,VWS V14.01,2013-05-15 09:30:00,
2013-05-15 02:35:00,46.0,13.9,28.41,SE,128,0.0,0.0,27,0.00,,---,0.00,VWS V14.01,2013-05-15 09:35:00,
2013-05-15 02:41:00,46.0,13.9,28.38,SE,128,0.0,0.0,27,0.00,,---,0.00,VWS V14.01,2013-05-15 09:41:00,
2013-05-15 02:46:00,46.6,11.7,28.38,SE,144,0.0,0.0,24,0.00,,---,0.00,VWS V14.01,2013-05-15 09:46:00,
2013-05-15 02:51:00,46.8,11.9,28.38,ESE,108,0.0,0.0,24,0.00,,---,0.00,VWS V14.01,2013-05-15 09:51:00,
2013-05-15 02:56:00,47.3,10.4,28.38,ESE,108,0.0,0.0,22,0.00,,---,0.00,VWS V14.01,2013-05-15 09:56:00,
2013-05-15 03:02:00,47.3,10.4,28.38,ESE,108,0.0,0.0,22,0.00,,---,0.00,VWS V14.01,2013-05-15 10:02:00,
2013-05-15 03:07:00,47.3,10.4,28.38,ESE,108,0.0,0.0,22,0.00,,---,0.00,VWS V14.01,2013-05-15 10:07:00,
2013-05-15 03:12:00,47.7,10.7,28.38,ESE,108,0.0,0.0,22,0.00,,---,0.00,VWS V14.01,2013-05-15 10:12:00,
2013-05-15 03:17:00,47.5,10.6,28.38,ESE,108,0.0,0.0,22,0.00,,---,0.00,VWS V14.01,2013-05-15 10:17:00,
2013-05-15 03:23:00,46.9,14.7,28.38,ESE,108,0.0,0.0,27,0.00,,---,0.00,VWS V14.01,2013-05-15 10:23:00,
2013-05-15 03:28:00,46.8,14.6,28.38,ESE,108,0.0,0.0,27,0.00,,---,0.00,VWS V14.01,2013-05-15 10:28:00,
2013-05-15 03:33:00,46.4,14.2,28.38,ESE,108,0.0,0.0,27,0.00,,---,0.00,VWS V14.01,2013-05-15 10:33:00,
2013-05-15 03:38:00,45.9,16.2,28.38,South,184,0.0,0.0,30,0.00,,---,0.00,VWS V14.01,2013-05-15 10:38:00,
2013-05-15 03:44:00,45.9,16.2,28.38,SSW,196,0.0,0.0,30,0.00,,---,0.00,VWS V14.01,2013-05-15 10:44:00,
2013-05-15 03:49:00,45.7,15.3,28.38,SSW,196,0.0,0.0,29,0.00,,---,0.00,VWS V14.01,2013-05-15 10:49:00,
2013-05-15 03:54:00,46.2,14.9,28.38,SSW,207,0.0,0.0,28,0.00,,---,0.00,VWS V14.01,2013-05-15 10:54:00,
2013-05-15 03:59:00,46.2,14.9,28.38,SSW,207,3.1,3.1,28,0.00,,---,0.00,VWS V14.01,2013-05-15 10:59:00,
2013-05-15 04:05:00,46.8,14.6,28.38,SSW,200,3.1,3.6,27,0.00,,---,0.00,VWS V14.01,2013-05-15 11:05:00,
2013-05-15 04:10:00,46.8,14.6,28.38,SSW,194,0.0,0.0,27,0.00,,---,0.00,VWS V14.01,2013-05-15 11:10:00,
2013-05-15 04:16:00,46.9,14.7,28.38,SSW,199,0.0,0.0,27,0.00,,---,0.00,VWS V14.01,2013-05-15 11:16:00,
2013-05-15 04:22:00,46.8,14.6,28.38,SSW,198,0.0,0.0,27,0.00,,---,0.00,VWS V14.01,2013-05-15 11:22:00,
2013-05-15 04:28:00,46.8,14.6,28.38,SSW,198,0.0,0.0,27,0.00,,---,0.00,VWS V14.01,2013-05-15 11:28:00,
2013-05-15 04:33:00,46.8,15.4,28.38,South,188,3.1,3.1,28,0.00,,---,0.00,VWS V14.01,2013-05-15 11:33:00,
2013-05-15 04:39:00,46.6,15.2,28.38,SSW,195,4.0,4.0,28,0.00,,---,0.00,VWS V14.01,2013-05-15 11:39:00,
2013-05-15 04:45:00,46.4,15.1,28.38,SSW,198,0.0,4.0,28,0.00,,---,0.00,VWS V14.01,2013-05-15 11:45:00,
2013-05-15 04:50:00,46.4,15.1,28.38,SSW,198,0.0,0.0,28,0.00,,---,0.00,VWS V14.01,2013-05-15 11:50:00,
2013-05-15 04:55:00,46.2,18.0,28.38,SSW,198,0.0,0.0,32,0.00,,---,0.00,VWS V14.01,2013-05-15 11:55:00,
2013-05-15 05:00:00,45.9,17.7,28.38,SSW,198,0.0,0.0,32,0.00,,---,0.00,VWS V14.01,2013-05-15 12:00:00,
2013-05-15 05:06:00,45.3,17.2,28.38,SSW,198,0.0,0.0,32,0.00,,---,0.00,VWS V14.01,2013-05-15 12:06:00,
2013-05-15 05:11:00,45.3,17.2,28.38,SSW,198,0.0,0.0,32,0.00,,---,0.00,VWS V14.01,2013-05-15 12:11:00,
2013-05-15 05:16:00,45.3,17.2,28.38,SSW,198,0.0,0.0,32,0.00,,---,0.00,VWS V14.01,2013-05-15 12:16:00,
2013-05-15 05:22:00,45.5,16.6,28.38,SSW,198,0.0,0.0,31,0.00,,---,0.00,VWS V14.01,2013-05-15 12:22:00,
2013-05-15 05:27:00,45.5,16.6,28.38,SSW,198,0.0,0.0,31,0.00,,---,0.00,VWS V14.01,2013-05-15 12:27:00,
2013-05-15 05:33:00,45.9,17.7,28.38,SSW,198,0.0,0.0,32,0.00,,---,0.00,VWS V14.01,2013-05-15 12:33:00,
2013-05-15 05:39:00,45.9,17.7,28.38,SSW,198,0.0,0.0,32,0.00,,---,0.00,VWS V14.01,2013-05-15 12:39:00,
2013-05-15 05:44:00,45.9,17.7,28.38,SSW,198,0.0,0.0,32,0.00,,---,0.00,VWS V14.01,2013-05-15 12:44:00,
2013-05-15 05:50:00,45.1,19.8,28.38,SSW,198,0.0,0.0,36,0.00,,---,0.00,VWS V14.01,2013-05-15 12:50:00,
2013-05-15 05:55:00,45.7,16.8,28.38,SSW,198,0.0,0.0,31,0.00,,---,0.00,VWS V14.01,2013-05-15 12:55:00,
2013-05-15 06:01:00,46.0,17.1,28.38,SSW,198,0.0,0.0,31,0.00,,---,0.00,VWS V14.01,2013-05-15 13:01:00,
2013-05-15 06:06:00,46.0,17.1,28.38,SSW,198,0.0,0.0,31,0.00,,---,0.00,VWS V14.01,2013-05-15 13:06:00,
2013-05-15 06:11:00,46.0,17.1,28.38,SSW,198,0.0,0.0,31,0.00,,---,0.00,VWS V14.01,2013-05-15 13:11:00,
2013-05-15 06:17:00,46.2,18.0,28.38,SSW,198,0.0,0.0,32,0.00,,---,0.00,VWS V14.01,2013-05-15 13:17:00,
2013-05-15 06:22:00,46.2,18.0,28.38,SSW,198,0.0,0.0,32,0.00,,---,0.00,VWS V14.01,2013-05-15 13:22:00,
2013-05-15 06:28:00,46.2,18.0,28.35,SSW,198,0.0,0.0,32,0.00,,---,0.00,VWS V14.01,2013-05-15 13:28:00,
2013-05-15 06:33:00,46.2,18.0,28.35,SSW,198,0.0,0.0,32,0.00,,---,0.00,VWS V14.01,2013-05-15 13:33:00,
2013-05-15 06:40:00,46.8,17.7,28.38,SSW,198,0.0,0.0,31,0.00,,---,0.00,VWS V14.01,2013-05-15 13:40:00,
2013-05-15 06:45:00,46.8,17.7,28.38,SSW,198,0.0,0.0,31,0.00,,---,0.00,VWS V14.01,2013-05-15 13:45:00,
2013-05-15 06:50:00,47.3,18.2,28.38,SSW,198,0.0,0.0,31,0.00,,---,0.00,VWS V14.01,2013-05-15 13:50:00,
2013-05-15 06:56:00,47.3,18.2,28.38,SSW,198,0.0,0.0,31,0.00,,---,0.00,VWS V14.01,2013-05-15 13:56:00,
2013-05-15 07:01:00,47.3,18.2,28.38,SSW,198,0.0,0.0,31,0.00,,---,0.00,VWS V14.01,2013-05-15 14:01:00,
2013-05-15 07:06:00,48.0,18.8,28.38,SSW,198,0.0,0.0,31,0.00,,---,0.00,VWS V14.01,2013-05-15 14:06:00,
2013-05-15 07:12:00,48.0,18.8,28.38,SSW,198,0.0,0.0,31,0.00,,---,0.00,VWS V14.01,2013-05-15 14:12:00,
2013-05-15 07:17:00,48.4,19.2,28.38,SSW,198,0.0,0.0,31,0.00,,---,0.00,VWS V14.01,2013-05-15 14:17:00,
2013-05-15 07:23:00,48.4,19.2,28.38,SSW,198,0.0,0.0,31,0.00,,---,0.00,VWS V14.01,2013-05-15 14:23:00,
2013-05-15 07:28:00,48.7,22.3,28.38,SSW,198,0.0,0.0,35,0.00,,---,0.00,VWS V14.01,2013-05-15 14:28:00,
2013-05-15 07:33:00,48.9,23.8,28.38,SSW,199,0.0,0.0,37,0.00,,---,0.00,VWS V14.01,2013-05-15 14:33:00,
2013-05-15 07:39:00,49.1,23.3,28.38,SSW,202,0.0,0.0,36,0.00,,---,0.00,VWS V14.01,2013-05-15 14:39:00,
2013-05-15 07:44:00,49.3,22.8,28.38,SSW,202,0.0,0.0,35,0.00,,---,0.00,VWS V14.01,2013-05-15 14:44:00,
2013-05-15 07:50:00,49.1,22.6,28.38,SSW,202,0.0,0.0,35,0.00,,---,0.00,VWS V14.01,2013-05-15 14:50:00,
2013-05-15 07:55:00,49.1,22.6,28.38,SSW,203,0.0,0.0,35,0.00,,---,0.00,VWS V14.01,2013-05-15 14:55:00,
2013-05-15 08:00:00,49.1,21.3,28.38,SSW,203,0.0,0.0,33,0.00,,---,0.00,VWS V14.01,2013-05-15 15:00:00,
2013-05-15 08:07:00,50.0,22.8,28.38,SSW,203,0.0,0.0,34,0.00,,---,0.00,VWS V14.01,2013-05-15 15:07:00,
2013-05-15 08:12:00,50.5,22.5,28.38,SSW,203,0.0,0.0,33,0.00,,---,0.00,VWS V14.01,2013-05-15 15:12:00,
2013-05-15 08:18:00,51.1,22.3,28.38,SSW,192,0.0,0.0,32,0.00,,---,0.00,VWS V14.01,2013-05-15 15:18:00,
2013-05-15 08:23:00,51.3,21.7,28.38,SW,219,2.7,2.7,31,0.00,,---,0.00,VWS V14.01,2013-05-15 15:23:00,
2013-05-15 08:28:00,51.3,20.9,28.38,SSE,164,0.0,2.7,30,0.00,,---,0.00,VWS V14.01,2013-05-15 15:28:00,
2013-05-15 08:34:00,51.6,20.4,28.38,SSE,164,0.0,0.0,29,0.00,,---,0.00,VWS V14.01,2013-05-15 15:34:00,
2013-05-15 08:39:00,51.4,19.4,28.38,SSE,164,0.0,0.0,28,0.00,,---,0.00,VWS V14.01,2013-05-15 15:39:00,
2013-05-15 08:44:00,51.1,19.1,28.38,SSE,164,0.0,0.0,28,0.00,,---,0.00,VWS V14.01,2013-05-15 15:44:00,
2013-05-15 08:50:00,50.5,17.8,28.38,SSE,164,0.0,0.0,27,0.00,,---,0.00,VWS V14.01,2013-05-15 15:50:00,
2013-05-15 08:55:00,50.4,17.7,28.38,SSE,164,0.0,0.0,27,0.00,,---,0.00,VWS V14.01,2013-05-15 15:55:00,
2013-05-15 09:01:00,49.8,18.0,28.38,SSE,164,0.0,0.0,28,0.00,,---,0.00,VWS V14.01,2013-05-15 16:01:00,
2013-05-15 09:06:00,49.5,17.7,28.38,SSE,164,0.0,0.0,28,0.00,,---,0.00,VWS V14.01,2013-05-15 16:06:00,
2013-05-15 09:11:00,49.1,18.2,28.41,SSE,164,0.0,0.0,29,0.00,,---,0.00,VWS V14.01,2013-05-15 16:11:00,
2013-05-15 09:16:00,48.9,21.8,28.41,SSE,164,0.0,0.0,34,0.00,,---,0.00,VWS V14.01,2013-05-15 16:16:00,
2013-05-15 09:22:00,48.6,22.8,28.41,SSE,164,0.0,0.0,36,0.00,,---,0.00,VWS V14.01,2013-05-15 16:22:00,
2013-05-15 09:27:00,48.4,23.3,28.41,SSE,164,0.0,0.0,37,0.00,,---,0.00,VWS V14.01,2013-05-15 16:27:00,
2013-05-15 09:34:00,48.4,24.0,28.41,SSE,164,0.0,0.0,38,0.00,,---,0.00,VWS V14.01,2013-05-15 16:34:00,
2013-05-15 09:39:00,48.2,23.8,28.41,SSE,164,0.0,0.0,38,0.00,,---,0.00,VWS V14.01,2013-05-15 16:39:00,
2013-05-15 09:45:00,48.2,24.4,28.41,SSE,164,0.0,0.0,39,0.00,,---,0.00,VWS V14.01,2013-05-15 16:45:00,
2013-05-15 09:50:00,48.2,24.4,28.41,SSE,164,0.0,0.0,39,0.00,,---,0.00,VWS V14.01,2013-05-15 16:50:00,
2013-05-15 09:55:00,48.7,24.9,28.41,SSE,164,0.0,0.0,39,0.00,,---,0.00,VWS V14.01,2013-05-15 16:55:00,
2013-05-15 10:01:00,48.6,26.5,28.41,SSE,164,0.0,0.0,42,0.00,,---,0.00,VWS V14.01,2013-05-15 17:01:00,
2013-05-15 10:06:00,48.0,29.3,28.41,SSE,166,0.0,0.0,48,0.00,,---,0.00,VWS V14.01,2013-05-15 17:06:00,
2013-05-15 10:13:00,47.7,30.4,28.41,ENE,64,0.0,0.0,51,0.00,,---,0.00,VWS V14.01,2013-05-15 17:13:00,
2013-05-15 10:18:00,47.5,30.8,28.41,ENE,64,0.0,0.0,52,0.00,,---,0.00,VWS V14.01,2013-05-15 17:18:00,
2013-05-15 10:23:00,47.3,31.0,28.41,ENE,64,0.0,0.0,53,0.00,,---,0.00,VWS V14.01,2013-05-15 17:23:00,
2013-05-15 10:30:00,47.7,31.9,28.41,ENE,60,0.0,0.0,54,0.00,,---,0.00,VWS V14.01,2013-05-15 17:30:00,
2013-05-15 10:38:00,48.4,31.6,28.41,East,90,0.0,0.0,52,0.00,,---,0.00,VWS V14.01,2013-05-15 17:38:00,
2013-05-15 10:43:00,49.6,32.8,28.41,East,90,0.0,0.0,52,0.00,,---,0.00,VWS V14.01,2013-05-15 17:43:00,
2013-05-15 10:48:00,50.7,31.8,28.41,East,90,0.0,0.0,48,0.00,,---,0.00,VWS V14.01,2013-05-15 17:48:00,
2013-05-15 10:53:00,50.7,30.2,28.41,East,90,0.0,0.0,45,0.00,,---,0.00,VWS V14.01,2013-05-15 17:53:00,
2013-05-15 10:59:00,50.0,27.2,28.41,East,90,0.0,0.0,41,0.00,,---,0.00,VWS V14.01,2013-05-15 17:59:00,
2013-05-15 11:05:00,49.6,30.8,28.41,ENE,78,0.0,0.0,48,0.00,,---,0.00,VWS V14.01,2013-05-15 18:05:00,
2013-05-15 11:10:00,49.1,30.8,28.41,ENE,78,0.0,0.0,49,0.00,,---,0.00,VWS V14.01,2013-05-15 18:10:00,
2013-05-15 11:16:00,49.1,31.8,28.41,ENE,78,0.0,0.0,51,0.00,,---,0.00,VWS V14.01,2013-05-15 18:16:00,
2013-05-15 11:21:00,49.3,32.9,28.41,NNE,13,0.0,0.0,53,0.00,,---,0.00,VWS V14.01,2013-05-15 18:21:00,
2013-05-15 11:26:00,49.5,33.5,28.41,NNE,14,0.0,0.0,54,0.00,,---,0.00,VWS V14.01,2013-05-15 18:26:00,
2013-05-15 11:32:00,49.8,33.4,28.41,ENE,62,0.0,0.0,53,0.00,,---,0.00,VWS V14.01,2013-05-15 18:32:00,
2013-05-15 11:38:00,49.3,31.9,28.41,North,4,0.0,0.0,51,0.00,,---,0.00,VWS V14.01,2013-05-15 18:38:00,
2013-05-15 11:44:00,49.1,32.7,28.41,North,2,0.0,0.0,53,0.00,,---,0.00,VWS V14.01,2013-05-15 18:44:00,
2013-05-15 11:49:00,48.7,32.4,28.41,ENE,68,0.0,0.0,53,0.00,,---,0.00,VWS V14.01,2013-05-15 18:49:00,
2013-05-15 11:54:00,48.7,32.8,28.41,ENE,68,0.0,0.0,54,0.00,,---,0.00,VWS V14.01,2013-05-15 18:54:00,
2013-05-15 12:00:00,48.9,33.5,28.41,ENE,68,0.0,0.0,55,0.00,,---,0.00,VWS V14.01,2013-05-15 19:00:00,
2013-05-15 12:06:00,49.3,32.9,28.41,ENE,68,0.0,0.0,53,0.00,,---,0.00,VWS V14.01,2013-05-15 19:06:00,
2013-05-15 12:13:00,50.0,33.6,28.41,ENE,68,0.0,0.0,53,0.00,,---,0.00,VWS V14.01,2013-05-15 19:13:00,
2013-05-15 12:19:00,50.4,32.9,28.41,NE,34,0.0,0.0,51,0.00,,---,0.00,VWS V14.01,2013-05-15 19:19:00,
2013-05-15 12:25:00,50.4,31.9,28.41,NE,34,0.0,0.0,49,0.00,,---,0.00,VWS V14.01,2013-05-15 19:25:00,
2013-05-15 12:34:00,49.6,33.2,28.38,North,357,0.0,0.0,53,0.00,,---,0.00,VWS V14.01,2013-05-15 19:34:00,
2013-05-15 12:39:00,49.3,34.3,28.38,North,1,0.0,0.0,56,0.00,,---,0.00,VWS V14.01,2013-05-15 19:39:00,
2013-05-15 12:44:00,48.7,33.8,28.38,North,1,0.0,0.0,56,0.00,,---,0.00,VWS V14.01,2013-05-15 19:44:00,
2013-05-15 12:50:00,48.6,33.6,28.38,North,1,0.0,0.0,56,0.00,,---,0.00,VWS V14.01,2013-05-15 19:50:00,
2013-05-15 12:55:00,48.7,35.1,28.38,North,1,0.0,0.0,59,0.00,,---,0.00,VWS V14.01,2013-05-15 19:55:00,
2013-05-15 13:00:00,48.6,35.3,28.38,North,1,0.0,0.0,60,0.00,,---,0.00,VWS V14.01,2013-05-15 20:00:00,
2013-05-15 13:06:00,48.7,35.9,28.38,North,1,0.0,0.0,61,0.00,,---,0.00,VWS V14.01,2013-05-15 20:06:00,
2013-05-15 13:11:00,49.1,36.2,28.38,North,1,0.0,0.0,61,0.00,,---,0.00,VWS V14.01,2013-05-15 20:11:00,
2013-05-15 13:17:00,50.0,37.1,28.38,North,1,0.0,0.0,61,0.00,,---,0.00,VWS V14.01,2013-05-15 20:17:00,
2013-05-15 13:22:00,50.5,37.2,28.38,NNE,12,0.0,0.0,60,0.00,,---,0.00,VWS V14.01,2013-05-15 20:22:00,
2013-05-15 13:27:00,50.9,36.2,28.38,NNE,29,0.0,0.0,57,0.00,,---,0.00,VWS V14.01,2013-05-15 20:27:00,
2013-05-15 13:33:00,50.9,34.4,28.38,NNE,29,0.0,0.0,53,0.00,,---,0.00,VWS V14.01,2013-05-15 20:33:00,
2013-05-15 13:39:00,50.7,33.3,28.41,East,84,0.0,0.0,51,0.00,,---,0.00,VWS V14.01,2013-05-15 20:39:00,
2013-05-15 13:44:00,50.5,33.1,28.41,East,84,0.0,0.0,51,0.00,,---,0.00,VWS V14.01,2013-05-15 20:44:00,
2013-05-15 13:50:00,50.4,32.4,28.41,East,84,0.0,0.0,50,0.00,,---,0.00,VWS V14.01,2013-05-15 20:50:00,
2013-05-15 13:57:00,50.7,33.3,28.41,SE,139,0.0,0.0,51,0.00,,---,0.00,VWS V14.01,2013-05-15 20:57:00,
2013-05-15 14:02:00,52.0,34.4,28.41,South,173,0.0,0.0,51,0.00,,---,0.00,VWS V14.01,2013-05-15 21:02:00,
2013-05-15 14:07:00,52.5,34.4,28.41,SE,142,0.0,0.0,50,0.00,,---,0.00,VWS V14.01,2013-05-15 21:07:00,
2013-05-15 14:14:00,52.5,32.3,28.41,SSE,168,0.0,0.0,46,0.00,,---,0.00,VWS V14.01,2013-05-15 21:14:00,
2013-05-15 14:20:00,53.4,33.2,28.38,South,181,0.0,0.0,46,0.00,,---,0.00,VWS V14.01,2013-05-15 21:20:00,
2013-05-15 14:25:00,53.8,32.4,28.38,South,170,0.0,0.0,44,0.00,,---,0.00,VWS V14.01,2013-05-15 21:25:00,
2013-05-15 14:30:00,54.3,31.7,28.38,SSW,201,2.2,2.2,42,0.00,,---,0.00,VWS V14.01,2013-05-15 21:30:00,
2013-05-15 14:35:00,54.9,31.6,28.38,SSW,201,2.2,2.2,41,0.00,,---,0.00,VWS V14.01,2013-05-15 21:35:00,
2013-05-15 14:41:00,55.8,31.2,28.38,South,190,0.0,0.0,39,0.00,,---,0.00,VWS V14.01,2013-05-15 21:41:00,
2013-05-15 14:46:00,56.1,30.2,28.38,SSW,208,0.0,0.0,37,0.00,,---,0.00,VWS V14.01,2013-05-15 21:46:00,
2013-05-15 14:52:00,56.5,30.5,28.38,SSW,208,0.0,0.0,37,0.00,,---,0.00,VWS V14.01,2013-05-15 21:52:00,
2013-05-15 14:59:00,56.8,30.2,28.38,SSW,208,0.0,0.0,36,0.00,,---,0.00,VWS V14.01,2013-05-15 21:59:00,
2013-05-15 15:04:00,57.2,29.8,28.38,SSW,209,0.0,0.0,35,0.00,,---,0.00,VWS V14.01,2013-05-15 22:04:00,
2013-05-15 15:11:00,56.8,29.5,28.38,ENE,70,0.0,0.0,35,0.00,,---,0.00,VWS V14.01,2013-05-15 22:11:00,
2013-05-15 15:17:00,55.9,29.4,28.38,ESE,107,0.0,0.0,36,0.00,,---,0.00,VWS V14.01,2013-05-15 22:17:00,
2013-05-15 15:22:00,55.8,29.9,28.38,ENE,77,0.0,0.0,37,0.00,,---,0.00,VWS V14.01,2013-05-15 22:22:00,
2013-05-15 15:27:00,56.1,30.9,28.38,ENE,61,0.0,0.0,38,0.00,,---,0.00,VWS V14.01,2013-05-15 22:27:00,
2013-05-15 15:34:00,56.3,29.7,28.38,ENE,59,3.1,3.1,36,0.00,,---,0.00,VWS V14.01,2013-05-15 22:34:00,
2013-05-15 15:39:00,55.2,30.1,28.38,ENE,73,0.0,3.1,38,0.00,,---,0.00,VWS V14.01,2013-05-15 22:39:00,
2013-05-15 15:45:00,55.0,31.8,28.38,ENE,65,0.0,0.0,41,0.00,,---,0.00,VWS V14.01,2013-05-15 22:45:00,
2013-05-15 15:51:00,54.9,32.2,28.38,North,0,0.0,0.0,42,0.00,,---,0.00,VWS V14.01,2013-05-15 22:51:00,
2013-05-15 15:57:00,54.7,31.5,28.38,North,0,0.0,0.0,41,0.00,,---,0.00,VWS V14.01,2013-05-15 22:57:00,
2013-05-15 16:02:00,55.0,31.8,28.38,North,6,0.0,0.0,41,0.00,,---,0.00,VWS V14.01,2013-05-15 23:02:00,
2013-05-15 16:09:00,55.2,32.5,28.38,NE,53,0.0,0.0,42,0.00,,---,0.00,VWS V14.01,2013-05-15 23:09:00,
2013-05-15 16:14:00,55.6,31.7,28.38,NNW,348,0.0,0.0,40,0.00,,---,0.00,VWS V14.01,2013-05-15 23:14:00,
2013-05-15 16:19:00,56.5,31.8,28.38,NE,44,0.0,0.0,39,0.00,,---,0.00,VWS V14.01,2013-05-15 23:19:00,
2013-05-15 16:25:00,57.6,32.8,28.38,NNW,346,0.0,0.0,39,0.00,,---,0.00,VWS V14.01,2013-05-15 23:25:00,
2013-05-15 16:30:00,58.1,29.9,28.38,SW,228,0.0,0.0,34,0.00,,---,0.00,VWS V14.01,2013-05-15 23:30:00,
2013-05-15 16:37:00,58.5,30.9,28.38,SSE,154,0.0,0.0,35,0.00,,---,0.00,VWS V14.01,2013-05-15 23:37:00,
2013-05-15 16:42:00,59.9,28.4,28.38,SW,215,0.0,0.0,30,0.00,,---,0.00,VWS V14.01,2013-05-15 23:42:00,
2013-05-15 16:49:00,59.4,27.9,28.38,SSW,213,0.0,0.0,30,0.00,,---,0.00,VWS V14.01,2013-05-15 23:49:00,
2013-05-15 16:55:00,59.9,28.4,28.38,SSW,213,0.0,0.0,30,0.00,,---,0.00,VWS V14.01,2013-05-15 23:55:00,
2013-05-15 17:00:00,60.3,25.3,28.35,SSW,196,0.0,0.0,26,0.00,,---,0.00,VWS V14.01,2013-05-16 00:00:00,
2013-05-15 17:05:00,59.7,24.8,28.35,SE,124,0.0,0.0,26,0.00,,---,0.00,VWS V14.01,2013-05-16 00:05:00,
2013-05-15 17:10:00,58.8,25.8,28.35,WNW,283,0.0,0.0,28,0.00,,---,0.00,VWS V14.01,2013-05-16 00:10:00,
2013-05-15 17:16:00,58.3,25.3,28.35,ESE,112,0.0,0.0,28,0.00,,---,0.00,VWS V14.01,2013-05-16 00:16:00,
2013-05-15 17:21:00,58.3,27.0,28.35,ESE,112,0.0,0.0,30,0.00,,---,0.00,VWS V14.01,2013-05-16 00:21:00,
2013-05-15 17:27:00,58.1,26.0,28.35,SSW,193,0.0,0.0,29,0.00,,---,0.00,VWS V14.01,2013-05-16 00:27:00,
2013-05-15 17:32:00,57.4,24.6,28.35,South,181,0.0,0.0,28,0.00,,---,0.00,VWS V14.01,2013-05-16 00:32:00,
2013-05-15 17:38:00,57.0,25.9,28.35,SSE,160,0.0,0.0,30,0.00,,---,0.00,VWS V14.01,2013-05-16 00:38:00,
2013-05-15 17:43:00,56.8,28.8,28.35,South,177,0.0,0.0,34,0.00,,---,0.00,VWS V14.01,2013-05-16 00:43:00,
2013-05-15 17:48:00,56.7,27.2,28.35,South,177,0.0,0.0,32,0.00,,---,0.00,VWS V14.01,2013-05-16 00:48:00,
2013-05-15 17:54:00,56.3,26.8,28.35,SW,236,0.0,0.0,32,0.00,,---,0.00,VWS V14.01,2013-05-16 00:54:00,
2013-05-15 17:59:00,56.1,28.1,28.35,SW,236,0.0,0.0,34,0.00,,---,0.00,VWS V14.01,2013-05-16 00:59:00,
2013-05-15 18:04:00,55.6,28.4,28.35,South,171,0.0,0.0,35,0.00,,---,0.00,VWS V14.01,2013-05-16 01:04:00,
2013-05-15 18:10:00,55.0,28.6,28.35,South,171,0.0,0.0,36,0.00,,---,0.00,VWS V14.01,2013-05-16 01:10:00,
2013-05-15 18:15:00,55.0,28.6,28.35,South,171,0.0,0.0,36,0.00,,---,0.00,VWS V14.01,2013-05-16 01:15:00,
2013-05-15 18:23:00,55.2,30.1,28.35,SSE,160,0.0,0.0,38,0.00,,---,0.00,VWS V14.01,2013-05-16 01:23:00,
2013-05-15 18:28:00,55.2,30.1,28.35,SSE,160,0.0,0.0,38,0.00,,---,0.00,VWS V14.01,2013-05-16 01:28:00,
2013-05-15 18:34:00,55.4,30.2,28.35,SSE,160,0.0,0.0,38,0.00,,---,0.00,VWS V14.01,2013-05-16 01:34:00,
2013-05-15 18:40:00,55.2,30.1,28.35,SSE,160,0.0,0.0,38,0.00,,---,0.00,VWS V14.01,2013-05-16 01:40:00,
2013-05-15 18:45:00,54.7,29.6,28.35,SSW,201,0.0,0.0,38,0.00,,---,0.00,VWS V14.01,2013-05-16 01:45:00,
2013-05-15 18:50:00,54.3,29.3,28.35,SSW,201,0.0,0.0,38,0.00,,---,0.00,VWS V14.01,2013-05-16 01:50:00,
2013-05-15 18:55:00,54.0,29.0,28.35,SSW,201,0.0,0.0,38,0.00,,---,0.00,VWS V14.01,2013-05-16 01:55:00,
2013-05-15 19:02:00,53.4,29.7,28.35,SSW,202,0.0,0.0,40,0.00,,---,0.00,VWS V14.01,2013-05-16 02:02:00,
2013-05-15 19:07:00,53.1,30.6,28.35,SSW,202,0.0,0.0,42,0.00,,---,0.00,VWS V14.01,2013-05-16 02:07:00,
2013-05-15 19:13:00,52.3,32.2,28.35,SSW,202,0.0,0.0,46,0.00,,---,0.00,VWS V14.01,2013-05-16 02:13:00,
2013-05-15 19:19:00,52.2,32.6,28.35,SSW,202,0.0,0.0,47,0.00,,---,0.00,VWS V14.01,2013-05-16 02:19:00,
2013-05-15 19:24:00,52.2,32.6,28.35,SSW,202,0.0,0.0,47,0.00,,---,0.00,VWS V14.01,2013-05-16 02:24:00,
2013-05-15 19:30:00,52.0,33.4,28.35,SSW,202,0.0,0.0,49,0.00,,---,0.00,VWS V14.01,2013-05-16 02:30:00,
2013-05-15 19:35:00,51.6,33.1,28.35,SSW,202,0.0,0.0,49,0.00,,---,0.00,VWS V14.01,2013-05-16 02:35:00,
2013-05-15 19:41:00,51.6,33.6,28.35,SSW,201,0.0,0.0,50,0.00,,---,0.00,VWS V14.01,2013-05-16 02:41:00,
2013-05-15 19:46:00,51.6,33.6,28.35,SSW,201,0.0,0.0,50,0.00,,---,0.00,VWS V14.01,2013-05-16 02:46:00,
2013-05-15 19:52:00,51.4,33.9,28.35,ESE,109,0.0,0.0,51,0.00,,---,0.00,VWS V14.01,2013-05-16 02:52:00,
2013-05-15 19:58:00,51.4,33.9,28.35,ESE,109,0.0,0.0,51,0.00,,---,0.00,VWS V14.01,2013-05-16 02:58:00,
2013-05-15 20:03:00,51.4,33.9,28.35,ESE,109,0.0,0.0,51,0.00,,---,0.00,VWS V14.01,2013-05-16 03:03:00,
2013-05-15 20:08:00,50.9,34.9,28.35,ESE,109,0.0,0.0,54,0.00,,---,0.00,VWS V14.01,2013-05-16 03:08:00,
2013-05-15 20:14:00,50.7,36.1,28.35,ESE,109,0.0,0.0,57,0.00,,---,0.00,VWS V14.01,2013-05-16 03:14:00,
2013-05-15 20:19:00,50.4,36.2,28.35,ESE,109,0.0,0.0,58,0.00,,---,0.00,VWS V14.01,2013-05-16 03:19:00,
2013-05-15 20:24:00,50.4,37.4,28.35,NE,47,0.0,0.0,61,0.00,,---,0.00,VWS V14.01,2013-05-16 03:24:00,
2013-05-15 20:30:00,50.2,37.7,28.35,ENE,74,0.0,0.0,62,0.00,,---,0.00,VWS V14.01,2013-05-16 03:30:00,
2013-05-15 20:35:00,50.2,37.7,28.35,ENE,74,0.0,0.0,62,0.00,,---,0.00,VWS V14.01,2013-05-16 03:35:00,
2013-05-15 20:42:00,50.2,38.1,28.35,East,95,0.0,0.0,63,0.00,,---,0.00,VWS V14.01,2013-05-16 03:42:00,
2013-05-15 20:47:00,50.2,38.1,28.35,East,95,0.0,0.0,63,0.00,,---,0.00,VWS V14.01,2013-05-16 03:47:00,
2013-05-15 20:52:00,50.4,38.3,28.35,East,95,0.0,0.0,63,0.00,,---,0.00,VWS V14.01,2013-05-16 03:52:00,
2013-05-15 20:59:00,50.4,38.7,28.35,East,95,0.0,0.0,64,0.00,,---,0.00,VWS V14.01,2013-05-16 03:59:00,
2013-05-15 21:01:00,50.4,38.7,28.35,East,95,0.0,0.0,64,0.00,,---,0.00,VWS V14.01,2013-05-16 04:01:00,
2013-05-15 21:02:00,50.4,38.7,28.35,East,95,0.0,0.0,64,0.00,,---,0.00,VWS V14.01,2013-05-16 04:02:00,
2013-05-15 21:05:00,50.4,38.7,28.35,East,95,0.0,0.0,64,0.00,,---,0.00,VWS V14.01,2013-05-16 04:05:00,
2013-05-15 21:06:00,50.2,38.5,28.35,East,95,0.0,0.0,64,0.00,,---,0.00,VWS V14.01,2013-05-16 04:06:00,
2013-05-15 21:09:00,50.2,38.9,28.35,East,95,0.0,0.0,65,0.00,,---,0.00,VWS V14.01,2013-05-16 04:09:00,
2013-05-15 21:15:00,50.2,39.3,28.35,East,95,0.0,0.0,66,0.00,,---,0.00,VWS V14.01,2013-05-16 04:15:00,
2013-05-15 21:20:00,50.2,39.3,28.35,East,95,0.0,0.0,66,0.00,,---,0.00,VWS V14.01,2013-05-16 04:20:00,
2013-05-15 21:25:00,50.0,39.1,28.35,East,95,0.0,0.0,66,0.00,,---,0.00,VWS V14.01,2013-05-16 04:25:00,
2013-05-15 21:31:00,50.0,39.1,28.35,East,95,0.0,0.0,66,0.00,,---,0.00,VWS V14.01,2013-05-16 04:31:00,
2013-05-15 21:36:00,49.8,39.3,28.35,East,95,0.0,0.0,67,0.00,,---,0.00,VWS V14.01,2013-05-16 04:36:00,
2013-05-15 21:41:00,49.6,39.2,28.35,ENE,74,0.0,0.0,67,0.00,,---,0.00,VWS V14.01,2013-05-16 04:41:00,
2013-05-15 21:47:00,49.6,39.2,28.35,ENE,59,0.0,0.0,67,0.00,,---,0.00,VWS V14.01,2013-05-16 04:47:00,
2013-05-15 21:52:00,49.6,39.2,28.35,East,88,0.0,0.0,67,0.00,,---,0.00,VWS V14.01,2013-05-16 04:52:00,
2013-05-15 21:57:00,49.6,39.2,28.35,East,85,0.0,0.0,67,0.00,,---,0.00,VWS V14.01,2013-05-16 04:57:00,
2013-05-15 22:02:00,49.5,39.3,28.35,ENE,69,0.0,0.0,68,0.00,,---,0.00,VWS V14.01,2013-05-16 05:02:00,
2013-05-15 22:08:00,49.5,39.3,28.35,ENE,72,0.0,0.0,68,0.00,,---,0.00,VWS V14.01,2013-05-16 05:08:00,
2013-05-15 22:13:00,49.5,39.3,28.35,East,82,0.0,0.0,68,0.00,,---,0.00,VWS V14.01,2013-05-16 05:13:00,
2013-05-15 22:18:00,49.5,39.3,28.35,East,84,0.0,0.0,68,0.00,,---,0.00,VWS V14.01,2013-05-16 05:18:00,
2013-05-15 22:23:00,49.5,39.3,28.35,East,91,0.0,0.0,68,0.00,,---,0.00,VWS V14.01,2013-05-16 05:23:00,
2013-05-15 22:29:00,49.3,38.8,28.35,ENE,61,0.0,0.0,67,0.00,,---,0.00,VWS V14.01,2013-05-16 05:29:00,
2013-05-15 22:34:00,49.1,38.6,28.35,SE,129,0.0,0.0,67,0.00,,---,0.00,VWS V14.01,2013-05-16 05:34:00,
2013-05-15 22:39:00,49.3,38.8,28.35,SSE,151,0.0,0.0,67,0.00,,---,0.00,VWS V14.01,2013-05-16 05:39:00,
2013-05-15 22:44:00,49.3,38.8,28.35,East,94,0.0,0.0,67,0.00,,---,0.00,VWS V14.01,2013-05-16 05:44:00,
2013-05-15 22:50:00,49.3,38.8,28.35,East,88,0.0,0.0,67,0.00,,---,0.00,VWS V14.01,2013-05-16 05:50:00,
2013-05-15 22:55:00,49.3,38.4,28.35,ESE,116,0.0,0.0,66,0.00,,---,0.00,VWS V14.01,2013-05-16 05:55:00,
2013-05-15 23:00:00,49.3,38.4,28.35,ESE,118,3.6,3.6,66,0.00,,---,0.00,VWS V14.01,2013-05-16 06:00:00,
2013-05-15 23:06:00,49.3,38.0,28.35,ESE,111,0.0,0.0,65,0.00,,---,0.00,VWS V14.01,2013-05-16 06:06:00,
2013-05-15 23:11:00,49.3,37.6,28.35,ESE,111,0.0,0.0,64,0.00,,---,0.00,VWS V14.01,2013-05-16 06:11:00,
2013-05-15 23:16:00,49.3,37.6,28.35,ESE,121,2.7,2.7,64,0.00,,---,0.00,VWS V14.01,2013-05-16 06:16:00,
2013-05-15 23:21:00,49.3,37.2,28.32,ESE,121,2.7,2.7,63,0.00,,---,0.00,VWS V14.01,2013-05-16 06:21:00,
2013-05-15 23:27:00,49.3,36.8,28.32,SE,128,0.0,2.7,62,0.00,,---,0.00,VWS V14.01,2013-05-16 06:27:00,
2013-05-15 23:32:00,49.3,36.8,28.32,ESE,103,0.0,0.0,62,0.00,,---,0.00,VWS V14.01,2013-05-16 06:32:00,
2013-05-15 23:37:00,49.3,36.8,28.32,ESE,103,0.0,0.0,62,0.00,,---,0.00,VWS V14.01,2013-05-16 06:37:00,
2013-05-15 23:42:00,49.3,36.4,28.32,ESE,113,0.0,0.0,61,0.00,,---,0.00,VWS V14.01,2013-05-16 06:42:00,
2013-05-15 23:48:00,49.3,36.4,28.32,SSE,148,0.0,0.0,61,0.00,,---,0.00,VWS V14.01,2013-05-16 06:48:00,
2013-05-15 23:53:00,49.3,36.4,28.32,ESE,121,0.0,0.0,61,0.00,,---,0.00,VWS V14.01,2013-05-16 06:53:00,
2013-05-15 23:58:00,49.3,36.4,28.32,ESE,118,0.0,0.0,61,0.00,,---,0.00,VWS V14.01,2013-05-16 06:58:00,